Wind_Speed
78 79 82 84 85 88 87 87 86 89 90 83 83 81 82 86 82 74 64 66 66 62 58 49 51 37 33 36 35 38 29 25 26 25 28 30 34 40 40 36 32 30 22 19 19
84 87 87 88 90 93 92 96 93 89 91 91 86 84 75 88 82 77 75 72 67 65 60 51 51 36 35 32 34 34 25 22 22 24 25 29 33 33 37 34 34 30 21 19 19
90 88 89 89 94 100 100 99 99 97 91 88 84 83 85 85 87 85 76 74 69 68 62 52 48 38 31 31 32 30 22 22 23 21 25 19 27 32 37 37 36 31 23 22 22
92 92 97 101 101 101 104 105 98 97 90 80 84 87 84 80 82 80 82 78 79 71 56 49 46 38 32 31 30 26 19 23 25 22 23 25 29 30 34 37 39 38 27 20 19
96 98 101 103 101 99 97 93 91 87 75 73 69 79 82 83 88 80 77 75 73 69 57 48 42 37 32 32 28 22 21 25 24 24 22 23 24 29 33 37 43 38 32 20 21
98 97 104 99 98 94 86 78 83 69 66 61 63 63 63 73 79 72 67 70 65 58 49 41 37 37 33 28 27 21 19 22 26 20 18 22 22 27 33 36 40 40 33 22 22
102 107 100 95 99 91 76 79 68 53 58 53 51 56 57 63 69 66 64 60 61 58 49 38 35 38 33 27 25 21 20 25 25 21 18 23 21 27 29 37 41 40 32 25 16
96 97 98 96 94 89 80 75 58 48 48 47 51 53 55 66 64 65 56 56 56 54 49 37 37 38 36 30 25 21 23 24 22 20 20 23 22 25 26 33 40 40 36 28 21
98 100 99 98 96 84 81 65 52 45 44 44 44 47 53 59 58 56 58 57 55 50 45 41 40 41 37 29 25 22 24 22 23 23 21 24 24 25 25 29 36 40 41 34 24
99 99 100 97 92 83 76 58 44 40 37 34 38 42 54 54 50 54 56 57 52 48 45 43 40 44 41 32 28 20 22 25 26 24 23 24 27 25 23 25 30 37 41 38 29
99 100 99 96 91 80 64 50 38 30 31 31 40 46 50 51 45 53 56 54 53 51 45 44 41 48 48 30 27 26 24 29 28 24 26 24 24 25 23 24 29 31 36 43 36
103 103 104 95 85 75 54 43 33 25 33 38 47 46 48 53 46 57 57 50 50 51 50 46 41 56 46 34 34 31 29 31 30 25 29 24 27 25 27 26 28 28 30 34 44
107 103 94 88 79 67 48 40 33 30 39 41 46 48 49 48 55 56 53 50 49 45 46 48 53 52 47 36 38 37 33 27 22 24 28 29 27 28 27 28 27 27 25 30 37
105 98 89 80 74 60 44 37 36 36 47 44 45 49 48 53 50 56 53 51 49 46 44 47 50 51 50 40 43 41 31 25 23 22 27 28 31 27 30 30 29 28 21 25 29
99 91 82 77 69 53 43 37 39 40 47 51 50 47 52 55 58 55 53 53 49 51 49 49 51 53 48 49 44 44 34 31 31 27 30 27 30 28 28 32 25 27 21 22 26
97 87 78 75 63 51 45 39 44 42 49 55 53 53 55 58 59 58 55 55 54 52 56 56 49 44 48 46 38 42 39 36 32 27 32 27 24 32 28 30 26 26 18 18 22
91 81 73 66 58 50 48 43 48 51 50 52 61 59 63 58 63 56 52 55 55 55 50 53 56 45 52 46 43 44 43 41 37 32 35 28 24 36 30 30 28 28 17 17 19
79 72 64 60 57 52 50 47 48 59 60 57 60 63 66 61 61 61 59 59 59 57 56 56 57 49 49 54 52 50 48 40 40 40 33 35 32 40 35 29 29 26 20 22 20
72 67 63 62 60 54 52 47 47 59 67 66 59 63 57 65 63 64 63 60 61 55 58 61 60 59 52 55 53 49 43 45 39 36 38 39 35 38 35 31 30 28 28 27 25
69 66 65 63 61 57 52 49 51 58 67 73 69 69 65 61 66 69 67 64 59 57 56 62 63 62 59 56 54 52 50 49 46 40 39 37 34 40 37 31 33 31 30 28 31
63 61 65 66 62 55 50 52 55 60 67 79 75 76 73 67 68 64 66 68 60 63 59 56 58 62 63 61 58 56 53 51 48 44 40 38 35 41 39 32 36 32 28 29 32
61 58 64 66 59 51 49 51 56 65 64 76 80 84 80 74 74 68 70 73 66 68 66 59 57 57 59 63 62 56 52 49 42 37 42 39 38 42 41 37 36 34 34 34 33
60 61 63 64 56 56 57 54 58 66 68 71 85 87 88 82 77 78 73 79 71 69 71 71 58 60 61 58 57 57 56 48 43 47 46 48 42 47 47 41 37 36 37 34 37
57 56 56 54 55 59 59 57 62 69 71 71 82 87 90 94 86 79 83 80 80 72 71 73 70 64 60 62 59 56 55 55 54 55 52 50 49 41 52 49 42 33 38 40 39
51 50 51 52 56 57 55 56 63 69 71 72 78 88 90 93 93 88 85 83 80 78 76 70 70 69 67 67 66 62 63 58 53 52 54 52 53 53 50 54 49 42 35 40 42
45 47 51 50 51 49 47 55 65 72 71 74 76 86 91 88 91 93 86 82 81 77 76 76 72 71 72 70 65 66 67 64 60 65 64 62 58 57 54 57 54 50 46 43 41
41 46 44 44 44 42 48 57 64 67 70 75 77 80 86 86 83 89 84 81 81 80 83 82 79 77 76 77 73 71 75 75 73 69 68 67 63 62 57 57 60 55 55 50 46
Wind_Direction
279 278 273 282 277 284 286 284 284 287 286 286 280 273 276 276 278 275 281 285 284 284 286 280 280 280 276 290 298 302 284 278 281 292 297 306 318 320 323 330 331 324 321 332 317
281 285 282 282 287 287 287 287 287 287 285 285 278 273 273 273 270 274 275 279 280 281 282 279 275 274 278 285 298 297 282 280 281 294 300 311 321 333 331 337 347 335 320 311 301
286 285 286 286 290 290 289 288 287 289 286 281 274 272 269 270 272 269 272 272 274 279 276 275 268 269 273 282 293 296 278 275 284 288 304 322 326 341 336 336 345 346 316 297 283
287 287 287 290 290 288 289 289 288 286 286 280 277 268 269 266 269 267 265 270 273 275 269 268 266 267 268 277 288 291 268 275 281 278 296 316 325 339 346 349 349 342 333 296 273
287 289 289 291 290 290 292 292 291 284 281 274 267 265 263 260 265 264 264 265 266 269 264 261 262 264 259 268 282 282 268 273 277 278 288 317 334 347 352 352 353 344 336 297 278
286 290 292 289 289 293 295 296 291 287 278 264 261 254 254 258 258 260 262 259 261 255 254 254 258 254 254 259 275 269 260 261 272 276 287 314 326 342 349 353 353 351 339 323 274
289 291 292 293 296 300 299 303 297 286 272 256 244 239 247 250 251 252 254 249 254 250 246 240 246 247 250 251 268 265 258 252 269 268 285 307 313 333 348 348 353 353 346 338 313
294 292 294 296 299 304 307 305 296 283 267 250 237 236 236 237 243 249 237 234 237 241 239 234 240 245 250 250 259 260 255 260 256 255 280 305 311 335 345 344 353 352 356 348 340
295 297 297 298 301 306 308 301 293 283 270 252 236 224 227 228 233 231 230 229 231 235 234 231 236 242 248 240 250 258 256 255 250 252 275 306 301 321 337 343 354 353 359 356 349
294 295 298 299 301 305 305 297 286 278 262 240 219 211 216 218 223 224 223 226 226 228 229 225 233 241 240 239 241 256 243 248 239 255 280 298 301 313 332 341 350 353 5 0 355
292 293 295 296 301 304 298 290 280 269 240 211 198 207 215 210 212 223 221 223 225 225 228 225 228 238 237 235 242 243 240 239 241 253 281 296 300 308 322 334 343 350 2 8 357
291 292 294 296 298 300 291 283 266 240 222 204 208 207 204 213 207 222 222 225 228 231 233 224 228 234 239 238 243 239 233 235 243 252 271 286 291 294 307 322 332 344 356 354 358
290 291 292 294 294 294 283 272 251 225 226 221 211 208 207 213 214 218 221 225 229 231 228 222 234 240 238 234 241 236 235 233 236 245 274 279 275 287 297 310 321 331 353 348 356
289 290 291 291 291 288 273 262 242 229 219 226 209 213 212 208 216 225 221 225 225 225 226 219 235 242 233 232 237 236 229 224 234 240 264 272 273 277 292 301 309 317 341 343 349
287 289 289 287 287 277 265 251 234 227 214 220 216 218 213 213 216 223 224 225 229 228 218 221 238 237 228 229 233 238 231 227 236 243 259 262 271 280 284 290 302 310 323 330 341
285 286 285 284 279 268 258 242 224 218 215 215 221 223 215 218 218 222 223 221 225 228 223 225 237 237 232 232 233 241 241 235 235 246 253 266 277 274 280 289 295 304 312 322 329
283 283 280 276 270 261 255 240 221 216 214 215 223 227 223 221 225 221 225 223 230 229 221 224 233 227 235 237 232 238 236 233 233 245 250 271 272 270 280 288 289 295 293 305 317
279 277 274 269 265 258 253 241 228 211 216 219 223 226 228 225 224 224 228 227 224 226 226 227 228 229 233 236 234 234 238 241 242 245 253 264 265 270 274 277 287 286 280 287 298
275 274 271 266 262 257 249 243 236 220 216 219 220 221 221 221 220 223 224 228 227 233 229 229 230 231 232 230 231 231 235 238 241 248 257 262 259 267 270 273 279 278 285 274 287
270 269 267 264 260 255 248 243 241 233 218 219 219 217 214 217 219 219 225 227 221 224 230 230 230 231 234 231 233 234 233 235 235 239 252 253 250 256 261 267 270 278 283 270 277
264 261 260 261 258 256 249 242 239 234 227 216 218 210 214 214 217 217 218 220 217 220 221 227 229 233 234 235 236 237 235 236 235 235 249 249 248 258 258 258 272 276 274 272 265
260 256 254 257 258 257 249 238 236 235 229 221 217 211 213 218 215 214 215 212 218 221 220 220 222 226 230 233 232 230 232 233 231 238 248 246 246 261 261 254 259 266 274 278 271
260 257 256 257 258 254 248 239 233 231 229 224 217 217 214 217 219 214 215 214 219 222 222 223 223 229 230 234 237 235 229 231 236 244 248 250 246 253 257 252 253 264 271 278 283
260 260 260 258 254 249 243 234 232 231 227 222 220 218 218 218 219 219 218 216 218 222 225 226 226 232 233 232 232 235 236 236 236 243 245 249 247 248 256 257 260 256 267 272 282
262 262 258 252 247 243 238 232 229 229 224 223 219 220 220 219 222 224 222 220 220 222 225 229 232 235 240 242 238 240 239 234 236 242 244 247 252 252 259 255 259 256 257 263 275
261 259 253 248 245 243 236 230 227 225 221 221 220 220 221 220 219 224 225 224 223 224 227 228 230 233 238 239 245 246 246 242 242 248 246 246 247 252 256 256 255 259 261 258 263
255 251 249 249 246 240 234 231 228 223 222 221 220 221 221 222 223 224 225 227 227 228 228 229 232 233 235 239 245 244 241 241 243 246 248 248 249 250 253 252 255 256 261 261 264
Height
10693 10691 10690 10688 10686 10684 10683 10683 10683 10683 10683 10683 10686 10687 10689 10690 10691 10693 10691 10695 10696 10699 10701 10703 10702 10706 10705 10703 10701 10699 10695 10693 10692 10691 10689 10687 10682 10676 10671 10665 10655 10646 10643 10640 10638
10677 10676 10673 10671 10670 10667 10666 10665 10663 10662 10660 10660 10665 10667 10671 10673 10674 10679 10681 10681 10685 10687 10690 10694 10694 10698 10697 10695 10694 10692 10690 10687 10687 10686 10684 10682 10677 10670 10664 10659 10650 10643 10640 10638 10638
10659 10657 10654 10652 10649 10646 10642 10640 10637 10634 10633 10635 10640 10645 10650 10655 10655 10663 10667 10668 10673 10677 10679 10682 10685 10689 10690 10687 10687 10686 10684 10682 10682 10681 10679 10677 10672 10665 10659 10653 10646 10641 10636 10635 10634
10643 10639 10636 10633 10630 10625 10620 10615 10610 10608 10603 10606 10614 10619 10629 10633 10636 10642 10651 10655 10658 10664 10668 10672 10676 10680 10682 10680 10679 10679 10678 10677 10678 10676 10674 10672 10667 10661 10654 10649 10642 10635 10632 10630 10629
10624 10621 10615 10612 10606 10601 10595 10588 10582 10577 10578 10581 10588 10594 10604 10615 10614 10626 10634 10640 10644 10650 10656 10661 10666 10671 10673 10672 10672 10672 10672 10672 10673 10671 10670 10667 10663 10657 10651 10644 10639 10633 10627 10624 10623
10604 10600 10596 10590 10586 10583 10571 10561 10555 10549 10553 10554 10563 10572 10584 10596 10596 10610 10617 10624 10630 10637 10644 10650 10657 10661 10663 10665 10664 10665 10666 10667 10667 10667 10667 10664 10658 10653 10648 10641 10636 10629 10624 10620 10618
10582 10577 10573 10569 10564 10558 10548 10540 10531 10527 10527 10531 10541 10554 10569 10574 10582 10595 10600 10608 10617 10625 10633 10641 10646 10650 10653 10657 10657 10658 10660 10661 10662 10662 10662 10659 10655 10650 10644 10638 10632 10627 10622 10616 10614
10564 10557 10551 10547 10543 10536 10529 10519 10514 10511 10509 10512 10523 10536 10552 10552 10569 10576 10588 10594 10603 10613 10622 10631 10635 10640 10643 10649 10650 10652 10653 10654 10657 10657 10655 10653 10651 10646 10641 10636 10631 10624 10617 10612 10608
10542 10536 10531 10528 10523 10520 10513 10504 10500 10497 10495 10500 10509 10519 10532 10538 10553 10563 10574 10581 10591 10602 10612 10619 10624 10629 10634 10639 10642 10644 10646 10648 10650 10650 10649 10648 10646 10643 10639 10635 10630 10621 10613 10608 10604
10523 10517 10515 10510 10508 10506 10501 10493 10491 10487 10485 10489 10499 10509 10517 10531 10543 10552 10562 10570 10580 10591 10603 10609 10614 10619 10623 10629 10634 10638 10639 10641 10642 10644 10643 10642 10640 10639 10635 10632 10627 10620 10612 10607 10603
10503 10498 10497 10494 10491 10493 10489 10484 10484 10481 10480 10485 10493 10503 10512 10524 10534 10544 10552 10560 10571 10583 10592 10597 10606 10607 10610 10622 10628 10629 10631 10633 10636 10639 10637 10637 10636 10635 10631 10629 10625 10620 10613 10607 10602
10482 10480 10479 10477 10476 10479 10478 10475 10476 10477 10478 10482 10488 10497 10503 10517 10527 10534 10542 10552 10562 10572 10578 10590 10596 10587 10604 10614 10618 10620 10621 10625 10630 10633 10632 10632 10630 10629 10628 10624 10622 10619 10612 10608 10603
10462 10461 10461 10460 10460 10465 10466 10464 10468 10472 10474 10478 10483 10491 10501 10515 10518 10524 10534 10543 10553 10562 10571 10578 10575 10585 10596 10604 10607 10610 10613 10619 10623 10628 10627 10625 10623 10623 10622 10620 10618 10615 10611 10608 10603
10442 10442 10444 10442 10443 10448 10450 10454 10457 10462 10467 10468 10478 10485 10495 10504 10513 10511 10527 10534 10544 10552 10557 10568 10570 10576 10586 10594 10595 10600 10607 10612 10615 10621 10621 10619 10616 10617 10615 10615 10613 10611 10609 10607 10603
10421 10423 10426 10423 10425 10431 10435 10441 10446 10452 10459 10464 10472 10479 10486 10494 10499 10505 10518 10526 10534 10538 10547 10556 10555 10562 10575 10577 10586 10588 10600 10604 10608 10613 10612 10614 10610 10611 10611 10610 10608 10608 10606 10605 10602
10399 10403 10405 10405 10406 10414 10418 10428 10435 10443 10447 10454 10461 10467 10474 10481 10489 10497 10506 10513 10519 10526 10539 10544 10548 10559 10564 10570 10578 10582 10590 10594 10599 10604 10605 10608 10610 10601 10605 10604 10603 10602 10601 10600 10599
10378 10381 10383 10383 10387 10397 10401 10411 10420 10430 10434 10444 10448 10452 10459 10470 10478 10485 10493 10503 10509 10517 10528 10532 10538 10546 10551 10561 10567 10572 10577 10583 10591 10595 10596 10602 10605 10589 10598 10598 10597 10595 10596 10595 10593
10355 10360 10362 10362 10368 10378 10383 10394 10406 10412 10419 10425 10432 10437 10445 10454 10464 10470 10479 10488 10495 10505 10514 10521 10527 10534 10540 10547 10551 10557 10564 10577 10581 10586 10590 10592 10597 10583 10588 10591 10590 10590 10590 10590 10588
10335 10338 10340 10341 10347 10358 10366 10378 10389 10394 10402 10407 10416 10422 10429 10439 10448 10456 10467 10478 10487 10495 10502 10509 10516 10522 10530 10531 10540 10550 10559 10562 10571 10579 10582 10583 10585 10577 10579 10583 10583 10584 10583 10584 10584
10315 10318 10316 10319 10326 10337 10349 10363 10368 10376 10382 10387 10395 10406 10413 10423 10432 10442 10455 10463 10475 10484 10489 10498 10506 10513 10516 10524 10533 10541 10545 10552 10562 10568 10570 10574 10575 10569 10571 10575 10574 10577 10577 10578 10577
10293 10299 10294 10297 10306 10321 10334 10341 10347 10352 10362 10368 10375 10387 10397 10404 10416 10428 10442 10451 10463 10470 10477 10485 10493 10500 10507 10514 10520 10527 10535 10541 10548 10555 10560 10565 10565 10560 10564 10568 10565 10568 10569 10570 10570
10270 10279 10275 10277 10291 10303 10313 10318 10324 10327 10338 10350 10359 10368 10379 10389 10401 10415 10427 10439 10449 10457 10466 10474 10482 10487 10493 10498 10506 10514 10523 10530 10537 10545 10549 10552 10556 10551 10551 10558 10558 10557 10559 10560 10561
10248 10254 10257 10260 10275 10279 10285 10294 10300 10302 10314 10332 10343 10352 10363 10373 10384 10400 10411 10423 10433 10443 10452 10461 10472 10475 10482 10488 10494 10503 10510 10516 10524 10531 10538 10541 10545 10537 10537 10546 10550 10550 10550 10551 10551
10226 10234 10238 10244 10249 10252 10258 10268 10276 10277 10291 10308 10323 10333 10345 10355 10368 10383 10395 10408 10417 10429 10440 10450 10460 10465 10470 10476 10484 10489 10496 10503 10511 10518 10523 10529 10530 10530 10525 10530 10538 10544 10542 10542 10542
10209 10216 10217 10220 10221 10226 10237 10249 10252 10258 10272 10286 10302 10315 10324 10338 10354 10367 10378 10392 10403 10417 10426 10436 10447 10453 10458 10463 10470 10478 10484 10490 10498 10504 10509 10511 10517 10518 10516 10519 10523 10531 10534 10534 10533
10189 10191 10192 10198 10201 10211 10222 10227 10229 10236 10255 10268 10282 10290 10305 10325 10337 10347 10361 10379 10393 10405 10413 10423 10430 10439 10444 10448 10454 10462 10470 10476 10482 10486 10492 10497 10501 10506 10508 10506 10510 10515 10520 10522 10522
10169 10171 10175 10181 10187 10195 10198 10201 10208 10224 10241 10251 10262 10273 10287 10306 10326 10340 10354 10365 10377 10387 10396 10405 10413 10421 10430 10433 10437 10448 10453 10457 10462 10467 10474 10479 10485 10491 10496 10497 10498 10501 10501 10505 10509